Regional Weather Roundup
Issued by NWS New Orleans/Baton Rouge, LA

Home | Current Version | Previous Version | Graphics & Text | Print | Product List | Glossary Off
Versions: 1 2 3 4 5 6 7 8 9 10 11 12 13 14 15 16 17 18 19 20 21 22 23 24 25 26 27 28 29 30 31 32 33 34 35 36 37 38 39 40 41 42 43 44 45 46 47 48 49 50

144
ASUS44 KLIX 020410
RWRLIX
NEW ORLEANS REGIONAL WEATHER ROUNDUP
NATIONAL WEATHER SERVICE NEW ORLEANS LA
1100 PM CDT MON SEP 01 2014

NOTE: "FAIR" INDICATES FEW OR NO CLOUDS BELOW 12,000 FEET WITH NO
      SIGNIFICANT WEATHER AND/OR OBSTRUCTIONS TO VISIBILITY.
      SKY/WX - SKY CONDITION AND SIGNIFICANT WEATHER.
      TMP - AIR TEMPERATURE.     DP    - DEWPOINT TEMPERATURE.
      RH  - RELATIVE HUMIDITY.   PRES  - PRESSURE.
      HI  - HEAT INDEX.          WCI   - WIND CHILL INDEX.

*  THESE STATIONS ARE NOT NWS OR FAA STATIONS AND ARE NOT UNDER
   NWS QUALITY CONTROL.

LAZ038-040-048-061>063-065>067-069-020500-
SOUTHEAST LOUISIANA

CITY           SKY/WX    TMP DP  RH WIND       PRES   REMARKS
N.O. AUDUBON     N/A     81  78  92 MISG        N/A
N.O. INTL ARPT MOCLDY    81  76  84 SE5       30.03F
N.O. LAKEFRONT MOCLDY    79  74  84 SE5       30.04F
N.O. DOWNTOWN*   N/A     81  73  78 S5        30.04S
SLIDELL        CLOUDY    78  75  90 CALM      30.03F
BATON ROUGE    CLOUDY    79  75  87 SE7       30.01F
BOOTHVILLE     MOCLDY    82  78  88 SE3       30.05F
BELLE CHASSE   MOCLDY    82  76  81 S7        30.03F
BOGALUSA*        N/A     79  74  84 S5        30.05F
GALLIANO*      NOT AVBL
NEW ROADS*       N/A     78  76  94 SE3       30.01F
GONZALES*        N/A     80  79  98 CALM      30.02F
HAMMOND*       MOCLDY    77  73  88 SE3       30.04F
HOUMA*         MOCLDY    77  73  87 CALM      30.03F
PORT FOURCHON* PTCLDY    84  75  74 S7        30.06R

$$

MSZ070-080>082-020500-
SOUTHERN MISSISSIPPI

CITY           SKY/WX    TMP DP  RH WIND       PRES   REMARKS
MCCOMB         CLOUDY    77  74  90 SE7       30.04F
GULFPORT       MOCLDY    83  75  77 SE8       30.04F
BILOXI         MOCLDY    84  75  74 S8        30.05F
PASCAGOULA     MOCLDY    75  74  96 CALM      30.05F FOG

$$

COASTAL OBSERVATIONS
LAKE AND NEARSHORE STATIONS

STATION/POSITION TIME  TEMP    WIND        PRES    WAVE
                       AIR SEA DIR/SP/G            HT/PER
                 (UTC) (F)     (DEG/KT/KT) (MB)    (FT/S)
PASCAGOULA       0400   84     150/  4/  7 1017.2
WAVELAND YACHT   0400   84     180/  9/ 15 1016.6
GRAND ISLE       0400   84 85  180/  4/  9 1018.1
SOUTHWEST PASS   0400   84 90  130/  5/  7 1017.9
NEW CANAL        0400   79 81  160/  3/  3 1017.4
SHELL BEACH      0400   81 81  140/  6/  9 1017.1

OFFSHORE STATIONS

STATION/POSITION TIME  TEMP    WIND        PRES    WAVE
                       AIR SEA DIR/SP/G            HT/PER
                 (UTC) (F)     (DEG/KT/KT) (MB)    (FT/S)
64 S DAUPHIN ISL 0337   84 85  150/  8/  8 1018.4

$$




USA.gov is the U.S. government's official web portal to all federal, state and local government web resources and services.